User: anonymous   Login
Location: Home
(42.5358°N, 72.7383°W)
Time: 00:50:58
(UTC-05:00)
Language:

FALCONSAT 3 - Orbit

View from above orbital plane
View from above orbital plane
View from above satellite
View from above satellite

Ground track
Ground track

The orbit data is extracted from the following two-line orbital elements,

1 30776U 07006E   22027.52425396  .00012558  00000-0  26232-3 0  9994
2 30776  35.4336  96.7606 0002929 173.1680 186.9089 15.44695473827726
Epoch (UTC): 27 January 2022 12:34:55
Eccentricity: 0.0002929
inclination: 35.4336°
perigee height: 430 km
apogee height: 434 km
right ascension of ascending node: 96.7606°
argument of perigee: 173.1680°
revolutions per day: 15.44695473
mean anomaly at epoch: 186.9089°
orbit number at epoch: 82772

The dashed part of the orbit path shows where the satellite is in the earth's shadow,  

DLR